Regional Weather Roundup
Issued by NWS

Home | Current Version | Previous Version | Graphics & Text | Print | Product List | Glossary On
Versions: 1 2 3 4 5 6 7 8 9 10 11 12 13 14 15 16 17 18 19 20 21 22 23 24 25 26 27 28 29 30 31 32 33 34 35 36 37 38 39 40 41 42 43 44 45 46 47 48 49
321
ASUS45 KCYS 051510
RWRWY

WYOMING REGIONAL WEATHER ROUNDUP
NATIONAL WEATHER SERVICE CHEYENNE WY
800 AM MST FRI FEB 05 2016

NOTE:  "FAIR" INDICATES FEW OR NO CLOUDS BELOW 12,000 FEET
WITH NO SIGNIFICANT WEATHER AND/OR OBSTRUCTIONS TO VISIBILITY.

WYZ001-051600-
YELLOWSTONE NATIONAL PARK

CITY           SKY/WX    TMP DP  RH WIND       PRES   REMARKS
LK YELLOWSTONE   N/A      1  -3  83 CALM      30.38R
W YELLOWSTONE  NOT AVBL

$$
WYZ002>013-054>058-071-098>099-051600-
NORTHERN WYOMING

CITY           SKY/WX    TMP DP  RH WIND       PRES   REMARKS
JACKSON        PTCLDY     0   0 100 N14       30.43R WCI -19
CODY           FAIR      30   9  40 W17G26    30.27S WCI  18
GREYBULL       FAIR      10   8  92 CALM      30.36R
WORLAND        FAIR       9   4  80 CALM      30.34R
SHERIDAN       CLEAR     19  10  68 NW6       30.27R WCI  11
BUFFALO          N/A     28  10  46 N3        30.25R
GILLETTE       FAIR      25  18  74 W15       30.24R WCI  13
HULETT         CLOUDY    30  27  86 NW6       30.23R WCI  24
NEWCASTLE      FAIR      28  23  80 NW17G24   30.21R WCI  16

$$
WYZ014>020-022>026-101>103-051600-
CENTRAL WYOMING

CITY           SKY/WX    TMP DP  RH WIND       PRES   REMARKS
BIG PINEY      FAIR      11   4  73 N5        30.37R WCI   3
PINEDALE       FAIR      14   7  73 NW22      30.34R WCI  -4
DUBOIS         FAIR      19   7  58 W22G29    30.29S WCI   3
LANDER         FAIR      18   0  45 CALM      30.31R
RIVERTON       FAIR      13   2  61 SW7       30.32R WCI   3
CASPER         FAIR      15   5  64 SW15      30.31R WCI   0
DOUGLAS        FAIR      18   9  68 NW12      30.29R WCI   5

$$
WYZ021-027>030-104>119-051600-
SOUTHERN WYOMING

CITY           SKY/WX    TMP DP  RH WIND       PRES   REMARKS
EVANSTON       CLOUDY    19  15  84 W7        30.44R WCI  10
FORT BRIDGER   CLOUDY    21  18  86 W18       30.46R WCI   6
ROCK SPRINGS   FAIR      12   8  84 W17       30.38R WCI  -5
DIXON          PTSUNNY    3   0  88 CALM      30.44R
RAWLINS        FAIR      13   6  74 W21       30.33R WCI  -5
SARATOGA       FAIR       9   3  78 S6        30.34R WCI  -1
LARAMIE        FAIR       8   1  73 VRB6      30.25R WCI  -2
CHEYENNE       FAIR      20   7  57 NW15      30.23S WCI   6
TORRINGTON     FAIR      20  11  68 NW10      30.28R WCI   9
PINE BLUFFS    FAIR      23  12  63 NW20      30.27R WCI   8

$$




USA.gov is the U.S. government's official web portal to all federal, state and local government web resources and services.